Tracking 29089 objects as of 12-Jul-2024
HD Live streaming from Space Station
objects crossing your sky now

COSMOS 1275 DEB

Track COSMOS 1275 DEB now!
10-day predictions


NORAD ID: 14441
Int'l Code: 1981-053JL
Perigee: 846.3 km
Apogee: 904.6 km
Inclination: 83.1 °
Period: 102.3 minutes
Semi major axis: 7246 km
RCS: 0.0079 m2 (small)
Launch date: June 4, 1981
Source: Commonwealth of Independent States (former USSR) (CIS)
Launch site: PLESETSK MISSILE AND SPACE COMPLEX (PKMTR)

Note: This is SATELLITE DEBRIS
Your satellite tracking list
Your tracking list is empty




NASA's NSSDC Master Catalog

Two Line Element Set (TLE):
1 14441U 81053JH  24194.14635990  .00004355  00000-0  25625-2 0  9997
2 14441  83.1133  94.7184 0040245 263.0204  96.6392 14.07395294173932
Source of the keplerian elements: AFSPC